Location: CNYAC Observatory
(43.2150°N, 74.9500°W)
Time: 15:08:17
(UTC-04:00)

Daily predictions for brighter satellites

Satellite Brightness Start Highest point End
(mag) Time Altitude Azimuth Time Altitude Azimuth Time Altitude Azimuth
Cosmos 614 Rocket 4.0 21:08:26 10° S 21:13:37 73° ESE 21:18:48 10° NNE
Cosmos 2297 Rocket 2.5 21:08:14 10° SSW 21:13:53 77° WNW 21:19:34 10° NNE
USA 234 3.9 21:09:33 10° ENE 21:15:14 31° SE 21:20:53 10° S
Cosmos 1850 Rocket 4.1 21:12:29 10° S 21:17:31 55° ESE 21:22:35 10° NNE
RESURS DK-1 4.1 21:14:51 10° N 21:18:04 21° NE 21:21:16 10° ESE
Abrixas rocket 3.7 21:16:08 10° WNW 21:19:07 33° N 21:22:07 10° ENE
Tiangong 1 0.8 21:16:54 10° WSW 21:19:41 63° S 21:22:27 10° E
Cosmos 2221 2.7 21:15:21 10° N 21:19:41 57° E 21:24:01 10° SSE
Milstar 3 Cent rocket 4.4 21:20:56 10° WSW 21:26:51 27° S 21:36:55 10° SE
Okean 3 Rocket 3.7 21:23:02 10° S 21:27:28 63° E 21:31:54 10° NNE
ERS-1 Rocket 3.1 21:22:48 10° SSE 21:27:46 64° ENE 21:32:46 10° N
ATLAS 5 CENTAUR R/B 1.7 21:25:55 10° SSW 21:30:32 73° ESE 21:35:36 10° NE
Cosmos 1939 Rocket 3.9 21:28:39 10° S 21:32:30 47° W 21:36:27 10° NNW
Cosmos 1300 4.5 21:29:52 10° NNE 21:32:33 18° ENE 21:35:14 10° ESE
YAOGAN 6 2.9 21:29:08 10° S 21:32:44 70° W 21:36:26 10° NNW
H-2A R/B 3.2 21:29:52 10° SE 21:34:31 32° ENE 21:39:16 10° N
Cosmos 1726 3.5 21:32:23 10° NNE 21:35:24 23° ENE 21:38:07 11° SE
Cosmos 1340 Rocket 3.4 21:35:14 10° SSW 21:39:12 61° WNW 21:43:15 10° N
Cosmos 1184 Rocket 4.1 21:36:18 10° SSW 21:39:31 44° WNW 21:42:46 10° N
Cosmos 1818 3.7 21:34:35 10° NW 21:40:03 80° WSW 21:45:22 11° SSE
Cosmos 2237 Rocket 3.9 21:36:51 10° NW 21:41:36 29° WSW 21:46:21 10° SSW
Cosmos 1741 Rocket 4.1 21:37:03 10° SSW 21:42:22 88° ESE 21:47:43 10° NNE
Cosmos 1766 Rocket 4.0 21:38:55 10° SSE 21:43:01 43° E 21:47:08 10° NNE
Terra 3.6 21:41:09 10° ESE 21:44:22 18° ENE 21:47:35 10° NNE
YAOGAN 11 4.5 21:44:31 12° SSE 21:48:37 54° ENE 21:53:05 10° N
Cosmos 1603 4.1 21:43:40 10° NNW 21:49:11 51° ENE 21:53:56 14° SE
USA 245 3.6 21:46:50 14° SE 21:49:33 48° ENE 21:53:36 10° N
Cosmos 332 Rocket 4.5 21:47:57 10° N 21:52:37 42° ENE 21:56:25 15° SE
SL-08 RB Rocket 4.0 21:49:54 13° SSE 21:53:50 53° ENE 21:58:19 10° N
Cosmos 2228 Rocket 4.1 21:52:12 10° N 21:56:23 34° ENE 21:59:30 16° SE
Cosmos 2227 Rocket 4.4 21:52:52 10° WSW 21:57:48 30° NW 22:02:45 10° N
H-2A R/B 3.9 21:57:03 11° ESE 21:59:47 18° ENE 22:02:38 10° NNE
Cosmos 1674 2.9 21:57:14 10° SSW 22:00:58 70° W 22:04:44 10° N
Helios 1B rocket 4.4 21:58:05 10° N 22:01:48 32° WNW 22:05:29 10° SW
Cosmos 1459 Rocket 4.1 21:55:46 10° N 22:02:06 83° W 22:08:17 10° S
Cosmos 1908 3.8 22:00:26 10° NNW 22:04:15 56° W 22:08:01 10° S
H-2A ROCKET BODY 3.9 22:01:06 10° S 22:04:20 16° SE 22:10:31 10° ESE
Cosmos 2084 3.6 22:00:41 10° SW 22:04:39 66° NW 22:08:28 10° NNE
Cosmos 2100 Rocket 4.2 21:58:40 10° NNW 22:04:58 74° W 22:11:18 10° S
Cosmos 1943 4.1 22:00:08 10° N 22:05:19 36° ENE 22:09:32 15° ESE
SL-16 R/B 3.1 22:00:41 10° NW 22:06:01 44° WSW 22:11:20 10° S
ARGOS 3.2 22:01:30 12° SSE 22:06:33 87° ENE 22:12:00 10° NNW
MetOp-A 4.3 22:01:27 10° S 22:06:47 73° WSW 22:12:10 10° NNW
Cosmos 2061 Rocket 4.2 22:02:33 10° N 22:08:58 82° W 22:15:23 10° S
ERBS 3.4 22:08:24 10° NNW 22:11:35 36° NE 22:13:54 16° E
KORONAS-FOTON 4.0 22:11:02 10° SSW 22:14:50 72° W 22:18:38 10° N
Nimbus 7 Rocket 4.5 22:09:50 10° NNE 22:15:50 62° ESE 22:21:43 10° S
Cosmos 2173 Rocket 4.3 22:10:24 10° NNW 22:16:29 66° W 22:22:38 10° S
Cosmos 2123 Rocket 4.0 22:11:01 11° S 22:16:54 64° E 22:23:03 10° NNE
Cosmos 1814 Rocket 4.2 22:12:30 10° NNW 22:17:50 62° ENE 22:21:25 20° SE
Cosmos 1486 Rocket 4.4 22:20:44 17° S 22:24:30 45° ESE 22:29:32 10° NNE
SPOT 1/Viking Rocket 3.5 22:25:32 19° SSE 22:29:21 86° WSW 22:34:32 10° NNW
Cosmos 841 Rocket 4.0 22:24:19 10° N 22:29:26 48° ENE 22:32:30 22° SE
Cosmos 1242 Rocket 4.5 22:28:18 10° NW 22:31:29 27° W 22:34:38 10° SSW
Cosmos 1763 Rocket 3.6 22:26:57 10° NNW 22:32:04 64° ENE 22:35:00 25° SE
Cosmos 1703 4.4 22:31:38 24° ESE 22:32:42 28° E 22:36:08 10° NNE
Cosmos 220 Rocket 4.0 22:30:13 15° S 22:33:48 68° ESE 22:38:10 10° NNE
Meteor 1-11 4.5 22:32:13 20° SSE 22:36:05 54° E 22:41:45 10° NNE
Cosmos 1725 Rocket 4.0 22:32:42 10° N 22:39:00 86° W 22:43:35 19° S
SPOT 5 3.7 22:37:41 15° S 22:41:31 47° W 22:46:25 10° NNW
Cosmos 371 Rocket 3.3 22:38:16 10° NNW 22:43:07 83° WSW 22:45:45 27° SSE
Cosmos 2058 3.3 22:41:53 31° SSE 22:43:30 47° E 22:47:34 10° NNE
PSLV R/B 4.4 22:43:44 24° E 22:43:58 24° ENE 22:46:22 10° NNE
Lacrosse 5 1.9 22:39:06 10° NW 22:44:08 67° SW 22:46:42 29° SSE
deb Chang Zheng 4 4.2 22:44:13 10° NNE 22:48:21 39° E 22:49:38 31° SE
Meteor 1-27 4.3 22:44:04 10° N 22:49:54 72° ENE 22:53:07 27° SSE
Tiangong 1 0.6 22:52:26 10° W 22:55:09 77° SSW 22:55:09 77° SSW
CZ-4C R/B 3.8 22:56:28 15° E 22:56:28 15° E 22:59:13 10° ENE
Abrixas rocket 2.0 22:52:52 10° WNW 22:56:07 89° NNE 22:56:48 53° ESE
RESURS DK-1 3.3 22:52:22 10° NW 22:56:16 40° WSW 22:58:06 25° SSW
USA 234 3.4 22:52:04 10° NE 22:58:37 78° NW 23:05:09 10° WSW
Cosmos 1500 Rocket 3.7 23:01:39 24° SSW 23:04:17 72° W 23:08:45 10° N
Cosmos 2151 3.0 23:02:31 30° S 23:04:35 85° W 23:08:55 10° N
SL-14 R/B 4.4 23:02:08 15° SW 23:05:08 40° WNW 23:08:53 10° N
Cosmos 1626 2.0 23:05:11 48° SSE 23:06:05 73° E 23:09:49 10° NNE
Landsat 7 4.3 23:04:13 25° SSW 23:06:45 53° W 23:11:25 10° NNW
Cosmos 2263 Rocket 2.1 23:04:26 22° SSW 23:08:06 74° ESE 23:13:42 10° NNE
Cosmos 1300 4.2 23:04:56 10° NNW 23:08:20 31° W 23:10:19 19° SW
Cosmos 1503 Rocket 4.0 23:08:10 33° S 23:10:18 58° ESE 23:15:24 10° NNE
Cosmos 1726 4.2 23:07:45 10° NW 23:10:36 21° W 23:12:45 13° SW
H-2A R/B 3.3 23:10:15 17° SSW 23:13:48 37° W 23:18:48 10° NNW
CARTOSAT-1 3.9 23:12:29 34° SSW 23:14:11 60° W 23:18:28 10° NNW
CZ-4 R/B 3.7 23:16:22 10° NNE 23:21:16 79° ESE 23:23:08 38° S
Terra 2.3 23:19:37 31° SSW 23:21:41 54° W 23:26:22 10° NNW
Cosmos 1805 Rocket 3.7 23:22:29 46° SE 23:23:18 55° E 23:27:32 10° NNE
Cosmos 1633 Rocket 3.9 23:28:53 33° ESE 23:29:14 34° E 23:33:10 10° NNE
CZ-4B R/B 3.5 23:24:57 10° NNE 23:30:17 78° ESE 23:32:20 38° S
SL-19 R/B 4.3 23:25:36 10° N 23:30:55 72° WNW 23:34:17 24° SSW
Cosmos 2233 Rocket 4.5 23:26:12 10° NNW 23:32:13 54° W 23:35:40 25° SSW
Cosmos 968 Rocket 4.4 23:33:28 31° ESE 23:34:01 32° E 23:38:39 10° NE
Cosmos 540 Rocket 3.4 23:29:17 10° NNW 23:34:28 85° ENE 23:36:05 45° SSE
H-2A R/B 2.7 23:34:10 35° SW 23:35:28 45° W 23:39:35 10° NNW
Cosmos 1151 Rocket 4.3 23:32:00 10° NNW 23:35:58 34° W 23:37:43 24° SW
CZ-2C R/B 4.1 23:37:56 29° ESE 23:40:16 42° ENE 23:45:34 10° N
Cosmos 1455 2.4 23:38:20 10° NNW 23:42:09 58° W 23:42:40 52° SW
Cosmos 1844 Rocket 3.6 23:41:56 30° ESE 23:42:24 30° ESE 23:47:13 10° NE
Cosmos 1869 3.2 23:39:51 10° N 23:43:48 68° E 23:44:06 65° ESE
Cosmos 304 Rocket 3.9 23:42:01 10° NNW 23:46:46 62° WSW 23:47:54 47° SSW
ERBS 4.3 23:45:22 10° WNW 23:47:11 20° WSW 23:47:11 20° WSW
Spot 4 4.2 23:47:15 41° SSW 23:48:41 58° W 23:53:30 10° NNW
Cosmos 1943 4.2 23:44:14 10° NW 23:49:20 35° WSW 23:51:21 27° SW
Cosmos 2084 Rocket 4.5 23:46:06 10° NNW 23:49:35 33° NE 23:50:35 28° ENE
CZ-4C R/B 3.6 23:49:57 56° SSW 23:50:41 70° WSW 23:55:04 10° NNW
Cosmos 2242 Rocket 4.1 23:49:15 10° N 23:53:41 47° ENE 23:54:26 43° ESE
Cosmos 1354 Rocket 4.5 23:51:23 25° SW 23:54:21 58° WNW 23:59:32 10° NNE
Cosmos 1400 Rocket 3.9 23:55:02 33° E 23:55:02 33° E 23:58:36 10° NNE
